カタログに戻る

STARLINK-1183

運用中通信VLEO
NORAD 45088·PAYLOAD·🇺🇸 United States

打ち上げ Jan 29, 2020 から Cape Canaveral Space Force Station

Loading…

次のパス (今後24時間)

TLE

最新Source: CelesTrak SupGP

元期: Sep 15, 2026, 01:58 UTC

1 45088C 20006AW  26258.08243056  .00020268  00000+0  45253-3 0  2581
2 45088  53.1535  75.6968 0000926  97.2498 183.4080 15.42947191    14

AllMySatでSTARLINK-1183をリアルタイム追跡

Download on the App Store